Location: Arrington
(35.8681°N, 86.7092°W)
Time: 21:03:12
(UTC+00:00)

Cosmos 1400 Rocket - Pass Details

Date: 23 November 2019
Orbit: 522 x 568 km, 81.2° (Epoch: 15 December)

Event Time Altitude Azimuth Distance (km) Brightness Sun altitude
Exits shadow 11:36:46 - 340° (NNW) 2,463 5.8 -11.1°
Reaches altitude 10° 11:38:24 10° 334° (NNW) 1,822 5.1 -10.7°
Maximum altitude 11:42:06 37° 267° (W) 857 3.3 -10.0°
Drops below altitude 10° 11:45:43 10° 199° (SSW) 1,783 5.4 -9.3°
Sets 11:47:57 0° 191° (S) 2,661 6.4 -8.9°
